| time (UTC) | temp F | wind direction | speed MPH | gust MPH | rain 1hr in | rain 24hr in | rain mn in | humidity % | barometer mb |
| 20260505125017 | 63 | 295 | 4.0 | 9.0 | 259.92 | 0.00 | 0.00 | ||
| 20260505124017 | 63 | 259 | 3.0 | 9.0 | 259.92 | 0.00 | 0.00 | ||
| 20260505122017 | 63 | 326 | 2.0 | 9.0 | 259.92 | 0.00 | 0.00 | ||
| 20260505115017 | 58 | 291 | 3.0 | 6.0 | 259.92 | 0.00 | 0.00 | ||
| 20260505111517 | 55 | 246 | 2.0 | 5.0 | 259.92 | 0.00 | 0.00 | ||
| 20260505111017 | 55 | 229 | 2.0 | 7.0 | 259.92 | 0.00 | 0.00 | ||
| 20260505102017 | 53 | 269 | 1.0 | 6.0 | 259.92 | 0.00 | 0.00 | ||
| 20260505093517 | 53 | 228 | 3.0 | 5.0 | 259.92 | 0.00 | 0.00 | ||
| 20260505093017 | 53 | 249 | 3.0 | 4.0 | 259.92 | 0.00 | 0.00 | ||
| 20260505092517 | 53 | 217 | 3.0 | 7.0 | 259.92 | 0.00 | 0.00 | ||
| 20260505092017 | 53 | 259 | 2.0 | 5.0 | 259.92 | 0.00 | 0.00 | ||
| 20260505091017 | 54 | 288 | 3.0 | 6.0 | 259.92 | 0.00 | 0.00 | ||
| 20260505090517 | 53 | 291 | 3.0 | 8.0 | 259.92 | 0.00 | 0.00 | ||
| 20260505085017 | 53 | 256 | 3.0 | 6.0 | 259.92 | 0.00 | 0.00 | ||
| 20260505084017 | 53 | 271 | 3.0 | 7.0 | 259.92 | 0.00 | 0.00 | ||
| 20260505083518 | 54 | 276 | 3.0 | 8.0 | 259.92 | 0.00 | 0.00 | ||
| 20260505082517 | 53 | 257 | 6.0 | 11.0 | 259.92 | 0.00 | 0.00 | ||
| 20260505081017 | 52 | 287 | 5.0 | 9.0 | 259.92 | 0.00 | 0.00 | ||
| 20260505075017 | 54 | 267 | 5.0 | 9.0 | 259.92 | 0.00 | 0.00 | ||
| 20260505074017 | 54 | 250 | 5.0 | 10.0 | 259.92 | 0.00 | 0.00 | ||
| 20260505073017 | 54 | 267 | 6.0 | 10.0 | 259.92 | 0.00 | 0.00 | ||
| 20260505072517 | 54 | 262 | 6.0 | 12.0 | 259.92 | 0.00 | 0.00 | ||
| 20260505072017 | 54 | 284 | 7.0 | 12.0 | 259.92 | 0.00 | 0.00 | ||
| 20260505071017 | 54 | 267 | 7.0 | 14.0 | 259.92 | 0.00 | 0.00 | ||
| 20260505070517 | 54 | 264 | 6.0 | 12.0 | 259.92 | 0.00 | 0.00 | ||
| 20260505065017 | 55 | 278 | 5.0 | 14.0 | 259.92 | 0.00 | 0.00 | ||
| 20260505064517 | 55 | 278 | 6.0 | 11.0 | 259.92 | 0.00 | 0.00 | ||
| 20260505062518 | 55 | 288 | 7.0 | 18.0 | 259.92 | 0.00 | 0.00 | ||
| 20260505062017 | 54 | 285 | 6.0 | 14.0 | 259.92 | 0.00 | 0.00 | ||
| 20260505061517 | 55 | 257 | 7.0 | 14.0 | 259.92 | 0.00 | 0.00 | ||
| 20260505061018 | 55 | 295 | 7.0 | 16.0 | 259.92 | 0.00 | 0.00 | ||
| 20260505060517 | 55 | 229 | 6.0 | 14.0 | 259.92 | 0.00 | 0.00 | ||
| 20260505060017 | 54 | 291 | 6.0 | 16.0 | 259.92 | 0.00 | 0.00 | ||
| 20260505055518 | 54 | 260 | 6.0 | 11.0 | 259.92 | 0.00 | 0.00 | ||
| 20260505054018 | 54 | 169 | 5.0 | 9.0 | 259.92 | 0.00 | 0.00 | ||
| 20260505052517 | 54 | 226 | 6.0 | 12.0 | 259.92 | 0.00 | 0.00 | ||
| 20260505051018 | 55 | 302 | 5.0 | 10.0 | 259.92 | 0.00 | 0.00 | ||
| 20260505040518 | 56 | 266 | 5.0 | 9.0 | 259.92 | 0.00 | 0.00 | ||
| 20260505035018 | 57 | 249 | 5.0 | 8.0 | 259.92 | 0.00 | 0.00 | ||
| 20260505033017 | 58 | 248 | 4.0 | 7.0 | 259.92 | 0.00 | 0.00 | ||
| 20260505032517 | 58 | 232 | 4.0 | 8.0 | 259.92 | 0.00 | 0.00 | ||
| 20260505032017 | 58 | 249 | 5.0 | 13.0 | 259.92 | 0.00 | 0.00 | ||
| 20260505024517 | 60 | 238 | 3.0 | 7.0 | 259.92 | 0.00 | 0.00 | ||
| 20260505024018 | 59 | 225 | 3.0 | 8.0 | 259.92 | 0.00 | 0.00 | ||
| 20260505022518 | 59 | 271 | 4.0 | 9.0 | 259.92 | 0.00 | 0.00 | ||
| 20260505021518 | 59 | 266 | 2.0 | 11.0 | 259.92 | 0.00 | 0.00 | ||
| 20260505021018 | 60 | 239 | 3.0 | 6.0 | 259.92 | 0.00 | 0.00 | ||
| 20260505020517 | 59 | 269 | 3.0 | 10.0 | 259.92 | 0.00 | 0.00 | ||
| 20260505015518 | 60 | 253 | 2.0 | 8.0 | 259.92 | 0.00 | 0.00 | ||
| 20260505015018 | 60 | 249 | 3.0 | 8.0 | 259.92 | 0.00 | 0.00 | ||
| 20260505012518 | 61 | 226 | 2.0 | 6.0 | 259.92 | 0.00 | 0.00 | ||
| 20260505012018 | 60 | 242 | 3.0 | 9.0 | 259.92 | 0.00 | 0.00 | ||
| 20260505011018 | 61 | 212 | 3.0 | 7.0 | 259.92 | 0.00 | 0.00 | ||
| 20260505002518 | 61 | 264 | 4.0 | 15.0 | 259.92 | 0.00 | 0.00 | ||
| 20260505002018 | 61 | 319 | 4.0 | 8.0 | 259.92 | 0.00 | 0.00 | ||
| 20260505001018 | 61 | 262 | 4.0 | 11.0 | 259.92 | 0.00 | 0.00 | ||
| 20260504235018 | 61 | 291 | 4.0 | 9.0 | 259.92 | 0.00 | 0.00 | ||
| 20260504233518 | 62 | 288 | 3.0 | 8.0 | 259.92 | 0.00 | 0.00 | ||
| 20260504224519 | 65 | 270 | 6.0 | 13.0 | 259.92 | 0.00 | 0.00 | ||
| 20260504224018 | 66 | 287 | 3.0 | 13.0 | 259.92 | 0.00 | 0.00 | ||
| 20260504223018 | 66 | 283 | 5.0 | 12.0 | 259.92 | 0.00 | 0.00 | ||
| 20260504222018 | 66 | 273 | 4.0 | 11.0 | 259.92 | 0.00 | 0.00 | ||
| 20260504215518 | 67 | 270 | 7.0 | 15.0 | 259.92 | 0.00 | 0.00 | ||
| 20260504213518 | 68 | 297 | 8.0 | 18.0 | 259.92 | 0.00 | 0.00 | ||
| 20260504213018 | 68 | 309 | 7.0 | 16.0 | 259.92 | 0.00 | 0.00 | ||
| 20260504212518 | 69 | 281 | 5.0 | 9.0 | 259.92 | 0.00 | 0.00 | ||
| 20260504211018 | 68 | 293 | 4.0 | 10.0 | 259.92 | 0.00 | 0.00 | ||
| 20260504205518 | 69 | 269 | 5.0 | 14.0 | 259.92 | 0.00 | 0.00 | ||
| 20260504202519 | 70 | 274 | 6.0 | 13.0 | 259.92 | 0.00 | 0.00 | ||
| 20260504202018 | 69 | 301 | 9.0 | 19.0 | 259.92 | 0.00 | 0.00 | ||
| 20260504201518 | 69 | 288 | 9.0 | 19.0 | 259.92 | 0.00 | 0.00 | ||
| 20260504201018 | 70 | 311 | 8.0 | 19.0 | 259.92 | 0.00 | 0.00 | ||
| 20260504200518 | 70 | 304 | 7.0 | 14.0 | 259.92 | 0.00 | 0.00 | ||
| 20260504200018 | 70 | 280 | 8.0 | 16.0 | 259.92 | 0.00 | 0.00 | ||
| 20260504195518 | 69 | 330 | 7.0 | 17.0 | 259.92 | 0.00 | 0.00 | ||
| 20260504194518 | 69 | 281 | 4.0 | 13.0 | 259.92 | 0.00 | 0.00 | ||
| 20260504193518 | 67 | 290 | 5.0 | 11.0 | 259.92 | 0.00 | 0.00 | ||
| 20260504184019 | 68 | 315 | 5.0 | 18.0 | 259.92 | 0.00 | 0.00 | ||
| 20260504183518 | 68 | 312 | 4.0 | 13.0 | 259.92 | 0.00 | 0.00 | ||
| 20260504181518 | 63 | 319 | 6.0 | 14.0 | 259.92 | 0.00 | 0.00 | ||
| 20260504175518 | 62 | 281 | 8.0 | 19.0 | 259.92 | 0.00 | 0.00 | ||
| 20260504174518 | 62 | 318 | 8.0 | 19.0 | 259.92 | 0.00 | 0.00 | ||
| 20260504173518 | 62 | 319 | 9.0 | 20.0 | 259.92 | 0.00 | 0.00 | ||
| 20260504172518 | 62 | 293 | 8.0 | 22.0 | 259.92 | 0.00 | 0.00 | ||
| 20260504171018 | 63 | 256 | 9.0 | 21.0 | 259.92 | 0.00 | 0.00 | ||
| 20260504151018 | 68 | 249 | 10.0 | 21.0 | 259.92 | 0.00 | 0.00 |